Regional Weather Roundup
Issued by NWS

Home | Current Version | Previous Version | Graphics & Text | Print | Product List | Glossary On
Versions: 1 2 3 4 5 6 7 8 9 10 11 12 13 14 15 16 17 18 19 20 21 22 23 24 25 26 27 28 29 30 31 32 33 34 35 36 37 38 39 40 41 42 43 44 45 46 47 48 49 50
000
ASUS43 KLSX 232359
RWRMO

WEATHER SUMMARY FOR MISSOURI
NATIONAL WEATHER SERVICE SPRINGFIELD MO
700 PM CDT FRI JUN 23 2017

NOTE: "FAIR" INDICATES FEW OR NO CLOUDS BELOW 12,000 FEET WITH NO
       SIGNIFICANT WEATHER AND/OR OBSTRUCTIONS TO VISIBILITY.
       CURRENT SKY AND/OR WEATHER CONDITIONS ARE NOT AVAILABLE FOR
       CHILLICOTHE AND FARMINGTON.

MOZ001>031-035>038-043-044-053-054-240100-
...NORTHERN AND WESTERN MISSOURI...

CITY           SKY/WX    TMP DP  RH WIND       PRES   REMARKS
KANSAS CTY INT MOSUNNY   75  54  47 NW15      29.99R
6HR MIN TEMP:  75; 6HR MAX TEMP:  80;

KANSAS C DTWN  SUNNY     79  52  38 NW12G22   29.97R
6HR MIN TEMP:  79; 6HR MAX TEMP:  84;

LEE`S SUMMIT   SUNNY     78  51  38 NW12      29.98R
6HR MIN TEMP:  78; 6HR MAX TEMP:  83; 6HR PCP: TRACE;

ST JOSEPH      PTSUNNY   76  55  48 N16       29.99R
6HR MIN TEMP:  75; 6HR MAX TEMP:  80;

CHILLICOTHE      N/A     76  55  48 NW9G17    29.96R
6HR MIN TEMP:  76; 6HR MAX TEMP:  82;

KIRKSVILLE     MOSUNNY   75  54  47 NW9       29.93R
6HR MIN TEMP:  75; 6HR MAX TEMP:  82;


$$
MOZ066>068-077>081-088>096-101>105-240100-
...SOUTHWEST MISSOURI...

CITY           SKY/WX    TMP DP  RH WIND       PRES   REMARKS
SPRINGFIELD    CLOUDY    80  61  52 N8        29.94R
6HR MIN TEMP:  68; 6HR MAX TEMP:  81; 6HR PCP:  0.74;

JOPLIN         SUNNY     83  60  45 N9        29.95R
6HR MIN TEMP:  74; 6HR MAX TEMP:  85;

BRANSON        PTSUNNY   75  66  73 N12       29.95R

$$
MOZ032>034-039>042-045>050-055>058-069>072-240100-
...CENTRAL MISSOURI...

CITY           SKY/WX    TMP DP  RH WIND       PRES   REMARKS
COLUMBIA       SUNNY     81  57  43 NW10      29.91R
6HR MIN TEMP:  79; 6HR MAX TEMP:  84;

JEFFERSON CITY SUNNY     83  53  35 NW8       29.89R
6HR MIN TEMP:  79; 6HR MAX TEMP:  85;

ROLLA          PTSUNNY   79  61  53 NW5       29.90R
6HR MIN TEMP:  72; 6HR MAX TEMP:  79;

SEDALIA        SUNNY     80  54  40 NW9       29.95R
6HR MIN TEMP:  79; 6HR MAX TEMP:  84;

WARRENSBURG    SUNNY     79  46  31 NW8       29.95R
OSAGE BEACH    CLOUDY    79  59  50 VRB3      29.93R

$$
MOZ051-052-059>065-240100-
...EAST CENTRAL MISSOURI...

CITY           SKY/WX    TMP DP  RH WIND       PRES   REMARKS
ST LOUIS INTL  PTSUNNY   81  57  43 NW7       29.85R
6HR MIN TEMP:  81; 6HR MAX TEMP:  88;

SPIRIT OF STL  CLOUDY    80  62  54 W5        29.84R
6HR MIN TEMP:  80; 6HR MAX TEMP:  85;

ST CHARLES     CLOUDY    81  59  47 NW7       29.83R
6HR MIN TEMP:  80; 6HR MAX TEMP:  86;


$$
MOZ072>076-082>087-097>100-106>115-240100-
...SOUTH CENTRAL AND SOUTHEAST MISSOURI...

CITY           SKY/WX    TMP DP  RH WIND       PRES   REMARKS
CAPE GIRARDEAU CLOUDY    80  64  58 N15       29.80R
6HR MIN TEMP:  79; 6HR MAX TEMP:  89;

FARMINGTON     CLOUDY    75  60  59 NW7       29.87R
6HR MIN TEMP:  75; 6HR MAX TEMP:  86;

POPLAR BLUFF   CLOUDY    76  73  91 NW7       29.83R
6HR MIN TEMP:  76; 6HR MAX TEMP:  90; 6HR PCP:  0.03;

WEST PLAINS    CLOUDY    72  63  73 N8        29.91S
6HR MIN TEMP:  71; 6HR MAX TEMP:  90; 6HR PCP:  0.31;


$$




USA.gov is the U.S. government's official web portal to all federal, state and local government web resources and services.